This is the latest recevied weather packets stored in our database for station/object OE3BIA-11. If no packets are shown the sender has not sent any weather packets the latest 1 day(s).
| Time | Temp. | Humidity | Pressure | Rain* | Wind** | Luminosity | Snow |
|---|---|---|---|---|---|---|---|
| 1777982174 | 26.67° C | 3% | - | - | 3.13 m/s, 45° | - | - |
| 1777981871 | 26.11° C | 3% | - | - | 2.68 m/s, 67° | - | - |
| 1777981568 | 26.11° C | 3% | - | - | 2.68 m/s, 67° | - | - |
| 1777981265 | 25.56° C | 3% | - | - | 3.58 m/s, 67° | - | - |
| 1777980963 | 25.56° C | 3% | - | - | 3.58 m/s, 67° | - | - |
| 1777980660 | 25.56° C | 3% | - | - | 3.13 m/s, 67° | - | - |
| 1777980357 | 25.56° C | 3% | - | - | 3.58 m/s, 67° | - | - |
| 1777980054 | 25° C | 3% | - | - | 4.02 m/s, 67° | - | - |
| 1777979446 | 25° C | 3% | - | - | 2.68 m/s, 67° | - | - |
| 1777979143 | 24.44° C | 4% | - | - | 2.68 m/s, 67° | - | - |
| 1777978840 | 23.89° C | 4% | - | - | 3.58 m/s, 67° | - | - |
| 1777978538 | 24.44° C | 3% | - | - | 2.68 m/s, 90° | - | - |
| 1777978235 | 24.44° C | 3% | - | - | 2.24 m/s, 90° | - | - |
| 1777977932 | 24.44° C | 3% | - | - | 2.68 m/s, 90° | - | - |
| 1777977324 | 23.89° C | 3% | - | - | 1.79 m/s, 90° | - | - |
| 1777977021 | 23.33° C | 4% | - | - | 2.24 m/s, 90° | - | - |
| 1777976718 | 23.33° C | 4% | - | - | 2.24 m/s, 90° | - | - |
| 1777976110 | 23.33° C | 4% | - | - | 1.79 m/s, 90° | - | - |
| 1777975807 | 23.33° C | 4% | - | - | 2.24 m/s, 90° | - | - |
| 1777975504 | 23.33° C | 4% | - | - | 1.34 m/s, 90° | - | - |
| 1777975202 | 22.78° C | 4% | - | - | 1.79 m/s, 90° | - | - |
| 1777974594 | 22.78° C | 4% | - | - | 2.24 m/s, 90° | - | - |
| 1777974291 | 22.78° C | 4% | - | - | 2.24 m/s, 90° | - | - |
| 1777973988 | 23.33° C | 4% | - | - | 1.79 m/s, 90° | - | - |
| 1777973685 | 22.78° C | 4% | - | - | 2.68 m/s, 90° | - | - |
* Rain since midnight (hover to see other rain measurements)
** Current wind speed in m/s (hover to see current wind gust speed)